This demonstration page uses our WeatherBlox Daily Observations layout. Learn more.

Left ArrowRight Arrow

36.17497, -115.13722

Hourly Observations for June 7, 2019

Temp ( °F °C ) Dew Point ( °F °C ) Humidity (%) Winds ( mph kmh ) Pressure ( in mb ) Visibility ( mi km ) Precip ( " mm )
12:53 am 00:53 Clear 85 29.4 33 0.6 15 15 SW 9 15 29.72 1007 10 16 0.00 0.00
1:53 am 01:53 Clear 83 28.3 37 2.8 19 19 SSW 13 20 29.72 1006 10 16 0.00 0.00
2:53 am 02:53 Clear 82 27.8 40 4.4 22 22 SSW 13 20 29.72 1006 10 16 0.00 0.00
3:53 am 03:53 Clear 81 27.2 39 3.9 22 22 SSW 12 19 29.71 1006 10 16 0.00 0.00
4:53 am 04:53 Clear 78 25.6 37 2.8 23 23 SSE 9 15 29.71 1006 10 16 0.00 0.00
5:53 am 05:53 Sunny 78 25.6 37 2.8 23 23 S 10 17 29.73 1007 10 16 0.00 0.00
6:53 am 06:53 Sunny 80 26.7 39 3.9 23 23 SSW 13 20 29.74 1007 10 16 0.00 0.00
7:53 am 07:53 Sunny 83 28.3 38 3.3 20 20 SSW 15 24 29.75 1007 10 16 0.00 0.00
8:53 am 08:53 Sunny 86 30 37 2.8 18 18 S 20 31 29.75 1007 10 16 0.00 0.00
9:53 am 09:53 Sunny 89 31.7 32 0 13 13 SSW 20 31 29.73 1007 10 16 0.00 0.00
10:53 am 10:53 Sunny 91 32.8 32 0 12 12 SSW 25 41 29.73 1007 10 16 0.00 0.00
11:53 am 11:53 Sunny 93 33.9 31 -0.6 11 11 SW 20 31 29.72 1006 10 16 0.00 0.00
12:53 pm 12:53 Sunny 95 35 28 -2.2 9 9 SW 22 35 29.70 1006 10 16 0.00 0.00
1:53 pm 13:53 Sunny 96 35.6 26 -3.3 8 8 SW 23 37 29.69 1005 10 16 0.00 0.00
2:53 pm 14:53 Sunny 96 35.6 26 -3.3 8 8 SW 16 26 29.67 1005 10 16 0.00 0.00
3:53 pm 15:53 Sunny 94 34.4 22 -5.6 7 7 SW 18 30 29.66 1004 10 16 0.00 0.00
4:53 pm 16:53 Sunny 94 34.4 27 -2.8 9 9 WSW 16 26 29.67 1005 10 16 0.00 0.00
5:53 pm 17:53 Sunny 94 34.4 27 -2.8 9 9 SW 15 24 29.65 1004 10 16 0.00 0.00
6:53 pm 18:53 Sunny 93 33.9 29 -1.7 10 10 SW 16 26 29.64 1004 10 16 0.00 0.00
7:53 pm 19:53 Sunny 92 33.3 29 -1.7 10 10 W 13 20 29.65 1004 10 16 0.00 0.00
8:53 pm 20:53 Clear 90 32.2 28 -2.2 11 11 W 10 17 29.66 1004 10 16 0.00 0.00
9:53 pm 21:53 Clear 87 30.6 33 0.6 14 14 WSW 9 15 29.68 1005 10 16 0.00 0.00
10:53 pm 22:53 Clear 85 29.4 34 1.1 16 16 SSW 15 24 29.69 1005 10 16 0.00 0.00
11:53 pm 23:53 Clear 82 27.8 36 2.2 19 19 S 14 22 29.69 1006 10 16 0.00 0.00

Powered by AerisWeather